Total_Precipitation_Accumulation
0.31 0.41 0.42 0.39 0.40 0.41 0.45 0.56 0.62 0.53 0.53 0.64 0.76 0.85 0.95 0.96 0.96 0.85 0.68 0.67 0.60 0.53 0.47 0.43 0.42 0.47 0.53 0.55 0.56 0.60 0.64 0.67 0.74 0.90 1.12 1.34 1.53 1.70
0.39 0.45 0.51 0.51 0.51 0.51 0.52 0.60 0.73 0.71 0.66 0.67 0.75 0.76 0.76 0.62 0.64 0.64 0.61 0.62 0.55 0.49 0.45 0.42 0.39 0.40 0.41 0.45 0.48 0.48 0.48 0.46 0.46 0.48 0.55 0.66 0.83 1.09
0.38 0.44 0.48 0.55 0.62 0.63 0.68 0.70 0.73 0.84 0.78 0.66 0.77 0.86 0.78 0.60 0.51 0.51 0.53 0.53 0.51 0.49 0.46 0.43 0.40 0.38 0.38 0.37 0.41 0.43 0.41 0.41 0.38 0.36 0.36 0.39 0.38 0.42
0.36 0.46 0.50 0.51 0.57 0.64 0.76 0.79 0.81 0.93 0.92 0.78 0.85 0.94 0.85 0.74 0.61 0.53 0.44 0.43 0.44 0.48 0.47 0.47 0.45 0.41 0.37 0.35 0.34 0.33 0.33 0.32 0.32 0.29 0.27 0.26 0.26 0.27
0.34 0.42 0.50 0.58 0.61 0.65 0.75 0.79 0.85 1.00 1.04 0.96 0.96 1.06 1.09 0.88 0.66 0.51 0.42 0.42 0.39 0.43 0.45 0.47 0.46 0.43 0.38 0.35 0.34 0.30 0.27 0.26 0.23 0.22 0.23 0.22 0.23 0.23
0.35 0.39 0.43 0.55 0.64 0.68 0.76 0.88 0.96 1.04 1.12 1.10 1.13 1.24 1.24 1.10 0.84 0.57 0.48 0.45 0.43 0.39 0.42 0.42 0.43 0.41 0.37 0.33 0.31 0.30 0.28 0.27 0.24 0.19 0.17 0.17 0.17 0.17
0.26 0.33 0.34 0.39 0.49 0.61 0.69 0.79 0.96 1.12 1.27 1.33 1.34 1.50 1.45 1.25 0.99 0.70 0.58 0.52 0.49 0.46 0.43 0.37 0.35 0.32 0.31 0.30 0.30 0.29 0.28 0.25 0.23 0.21 0.17 0.14 0.13 0.13
0.22 0.28 0.29 0.29 0.32 0.38 0.48 0.62 0.77 0.94 1.15 1.33 1.46 1.56 1.61 1.47 1.26 1.02 0.71 0.53 0.48 0.50 0.48 0.46 0.42 0.38 0.33 0.29 0.30 0.28 0.28 0.26 0.22 0.19 0.17 0.16 0.14 0.13
0.23 0.26 0.21 0.18 0.26 0.30 0.35 0.42 0.52 0.64 0.79 1.00 1.20 1.31 1.49 1.60 1.46 1.17 0.89 0.69 0.55 0.53 0.51 0.48 0.47 0.45 0.41 0.37 0.39 0.33 0.29 0.28 0.25 0.21 0.18 0.16 0.15 0.14
0.24 0.27 0.27 0.25 0.27 0.32 0.37 0.36 0.37 0.40 0.48 0.59 0.76 1.00 1.21 1.42 1.46 1.35 1.25 1.00 0.77 0.63 0.57 0.50 0.44 0.42 0.43 0.41 0.40 0.36 0.33 0.31 0.29 0.27 0.24 0.21 0.19 0.16
0.26 0.30 0.34 0.31 0.26 0.22 0.30 0.33 0.32 0.31 0.32 0.40 0.53 0.75 1.00 1.18 1.35 1.34 1.24 1.10 0.89 0.67 0.54 0.48 0.41 0.39 0.39 0.36 0.36 0.37 0.34 0.34 0.34 0.32 0.29 0.27 0.26 0.23
0.38 0.40 0.37 0.31 0.27 0.19 0.25 0.30 0.29 0.28 0.31 0.32 0.38 0.51 0.66 0.91 1.11 1.13 1.04 0.96 0.85 0.67 0.50 0.43 0.38 0.37 0.39 0.31 0.26 0.27 0.28 0.33 0.37 0.37 0.35 0.33 0.30 0.22
0.42 0.43 0.44 0.35 0.27 0.21 0.21 0.27 0.25 0.28 0.35 0.38 0.39 0.47 0.59 0.73 0.93 1.02 1.00 0.87 0.75 0.61 0.48 0.43 0.39 0.35 0.31 0.26 0.23 0.23 0.22 0.22 0.25 0.31 0.37 0.40 0.38 0.26
0.53 0.55 0.56 0.44 0.35 0.29 0.23 0.21 0.21 0.23 0.34 0.39 0.41 0.43 0.50 0.59 0.75 0.96 1.07 0.99 0.82 0.70 0.63 0.55 0.44 0.38 0.30 0.21 0.20 0.22 0.24 0.25 0.23 0.22 0.27 0.40 0.44 0.42
0.55 0.66 0.66 0.53 0.47 0.42 0.33 0.25 0.23 0.23 0.30 0.37 0.35 0.37 0.41 0.50 0.66 0.92 1.13 1.24 1.12 0.91 0.79 0.67 0.56 0.48 0.40 0.28 0.19 0.17 0.20 0.23 0.23 0.22 0.23 0.27 0.33 0.37
0.51 0.62 0.69 0.69 0.65 0.59 0.49 0.37 0.28 0.28 0.30 0.36 0.40 0.43 0.51 0.59 0.69 0.76 0.96 1.12 1.18 1.07 0.90 0.77 0.65 0.60 0.51 0.38 0.26 0.19 0.16 0.18 0.20 0.21 0.23 0.25 0.29 0.34
0.56 0.73 0.87 0.91 0.93 0.86 0.73 0.59 0.47 0.43 0.39 0.41 0.49 0.53 0.57 0.60 0.64 0.67 0.78 0.91 0.91 0.88 0.83 0.80 0.76 0.68 0.65 0.55 0.37 0.24 0.18 0.15 0.15 0.17 0.21 0.26 0.29 0.33
0.44 0.69 0.96 1.06 1.09 1.08 0.97 0.80 0.67 0.59 0.54 0.52 0.55 0.57 0.56 0.59 0.63 0.67 0.71 0.79 0.79 0.74 0.73 0.70 0.72 0.72 0.67 0.65 0.51 0.33 0.23 0.18 0.14 0.15 0.18 0.23 0.26 0.29
0.30 0.51 0.79 1.00 1.09 1.13 1.07 0.90 0.74 0.69 0.70 0.65 0.62 0.60 0.58 0.57 0.62 0.67 0.69 0.73 0.77 0.74 0.69 0.67 0.64 0.61 0.57 0.50 0.45 0.35 0.27 0.22 0.19 0.17 0.17 0.18 0.20 0.21
0.26 0.40 0.64 0.90 1.00 1.05 1.03 0.97 0.85 0.81 0.79 0.74 0.69 0.65 0.61 0.59 0.57 0.59 0.62 0.64 0.68 0.75 0.69 0.62 0.57 0.50 0.44 0.40 0.37 0.34 0.28 0.27 0.24 0.21 0.18 0.18 0.21 0.25
0.34 0.38 0.52 0.73 0.87 0.95 0.95 0.92 0.86 0.84 0.83 0.81 0.76 0.72 0.67 0.66 0.61 0.56 0.59 0.64 0.66 0.69 0.63 0.49 0.46 0.53 0.58 0.58 0.53 0.44 0.33 0.30 0.34 0.30 0.22 0.18 0.20 0.22
0.41 0.41 0.46 0.60 0.75 0.85 0.87 0.83 0.84 0.83 0.83 0.81 0.77 0.73 0.67 0.64 0.64 0.62 0.60 0.61 0.57 0.57 0.61 0.61 0.61 0.62 0.61 0.54 0.48 0.47 0.40 0.33 0.36 0.43 0.36 0.25 0.16 0.14
0.48 0.43 0.45 0.55 0.65 0.75 0.75 0.73 0.74 0.80 0.79 0.76 0.73 0.72 0.68 0.64 0.64 0.65 0.61 0.62 0.62 0.62 0.70 0.76 0.73 0.63 0.56 0.54 0.50 0.49 0.48 0.41 0.35 0.33 0.30 0.27 0.22 0.18